Regional Weather Roundup
Issued by NWS

Home | Current Version | Previous Version | Text Only | Print | Product List | Glossary Off
Versions: 1 2 3 4 5 6 7 8 9 10 11 12 13 14 15 16 17 18 19 20 21 22 23 24 25 26 27 28 29 30 31 32 33 34 35 36 37 38 39 40 41 42 43 44 45 46 47 48 49 50

000
ASUS43 KIND 272059
RWRIN

WEATHER ROUNDUP FOR INDIANA
NATIONAL WEATHER SERVICE INDIANAPOLIS IN
500 PM EDT WED AUG 27 2014

NOTE: "FAIR" INDICATES FEW OR NO CLOUDS BELOW 12,000 FEET WITH NO
SIGNIFICANT WEATHER AND/OR OBSTRUCTIONS TO VISIBILITY.

* - STATION DOES NOT REPORT WEATHER SUCH AS PRECIPITATION OR FOG.

+ - STATION NOT QUALITY CONTROLLED BY THE NATIONAL WEATHER SERVICE.
    USE DATA WITH CAUTION...ESPECIALLY DEWPOINT AND RELATIVE
    HUMIDITY OBSERVATIONS.

INZ001>003-010>013-019-020-272200-
NORTHWEST INDIANA

CITY           SKY/WX    TMP DP  RH WIND       PRES   REMARKS
GARY /AIRPORT/ PTSUNNY   75  63  64 NE9       30.15R
KNOX *+        MOSUNNY   79  64  60 N6        30.10S
MONTICELLO +   MOSUNNY   80  70  71 CALM      30.09S
VALPARAISO     SUNNY     77  63  61 N10       30.14R

$$

LMZ046-743>745-272200-
SOUTHERN LAKE MICHIGAN

STATION/POSITION TIME  TEMP WIND        PRES
                       AIR  DIR/SP/G
                 (UTC) (F)  (DEG/KT/KT) (MB)
MICHIGAN CITY    2000   70  360/ 14/ 15   N/A

$$

INZ004-005-014>016-021>024-272200-
NORTH CENTRAL INDIANA

CITY           SKY/WX    TMP DP  RH WIND       PRES   REMARKS
ELKHART        SUNNY     81  57  44 NW7       30.12S
GOSHEN         MOSUNNY   80  61  52 N8        30.10S
SOUTH BEND     SUNNY     79  60  52 NW14      30.13R

$$

INZ006>009-017-018-025>027-272200-
NORTHEAST INDIANA

CITY           SKY/WX    TMP DP  RH WIND       PRES   REMARKS
ANGOLA *+      SUNNY     81  59  47 VRB6      30.10R
FORT WAYNE     PTSUNNY   81  63  54 W6        30.09S

$$

INZ028-029-035-036-043>045-051>053-272200-
WEST CENTRAL INDIANA

CITY           SKY/WX    TMP DP  RH WIND       PRES   REMARKS
GREENCASTLE +  MOSUNNY   86  72  62 N10       30.08S
LAFAYETTE      MOSUNNY   81  69  67 N9        30.08F
TERRE HAUTE    PTSUNNY   85  74  69 N5        30.06F

$$

INZ030>032-037>040-046>048-054>057-064-065-272200-
CENTRAL INDIANA

CITY           SKY/WX    TMP DP  RH WIND       PRES   REMARKS
COLUMBUS       CLOUDY    90  73  58 CALM      30.05F HX  98
FRANKFORT +    PTSUNNY   83  72  69 N6        30.10F
INDIANAPOLIS   PTSUNNY   88  72  58 NW10      30.06F
-EAGLE CREEK   PTSUNNY   87  71  58 N8        30.06F
KOKOMO *+      PTSUNNY   84  70  61 N10       30.08S
MT COMFORT *+  MOSUNNY   86  70  58 N9        30.07F
SHELBYVILLE    SUNNY     88  73  61 NW5       30.05F HX  95

$$

INZ033-034-041-042-049-050-058-059-272200-
EAST CENTRAL INDIANA

CITY           SKY/WX    TMP DP  RH WIND       PRES   REMARKS
MUNCIE         MOSUNNY   85  69  58 VRB3      30.07F

$$

INZ060-061-067>069-081>083-085>088-272200-
SOUTHWEST INDIANA

CITY           SKY/WX    TMP DP  RH WIND       PRES   REMARKS
EVANSVILLE     PTSUNNY   95  71  45 N12       30.04F HX 102

$$

INZ062-063-066-070>080-084-089>092-272200-
SOUTH CENTRAL AND SOUTHEAST INDIANA

CITY           SKY/WX    TMP DP  RH WIND       PRES   REMARKS
BLOOMINGTON    MOSUNNY   88  73  61 W6        30.06F HX  95

$$




USA.gov is the U.S. government's official web portal to all federal, state and local government web resources and services.